Alma, MI

3:53 PM EDT on October 22, 2017 (GMT -0400)
Gratiot Community

Weather History for KAMN - August, 2013

Change the Weather History Date:

Wednesday, August 7, 2013

  Actual Average Record
Temperature  
Mean Temperature 73 °F -  
Max Temperature 83 °F 80 °F 96 °F (2001)
Min Temperature 63 °F 57 °F 44 °F (1989)
Cooling Degree Days 8    
Growing Degree Days 23 (Base 50)    
Moisture  
Dew Point 65 °F    
Average Humidity 80    
Maximum Humidity 96    
Minimum Humidity 58    
Precipitation  
Precipitation 0.00 in - - ()
Sea Level Pressure  
Sea Level Pressure 29.85 in    
Wind  
Wind Speed 7 mph (SW)    
Max Wind Speed 17 mph    
Max Gust Speed 37 mph    
Visibility 9 miles    
Events Rain    
Averages and records for this station are not official NWS values.
T = Trace of Precipitation, MM = Missing Value Source: NWS Daily Summary

Daily Weather History Graph

Daily Weather History Graph

Search for Another Location

Airport or City:

Trip Planner

Search our weather history database for the weather conditions in past years. The results will help you decide how hot, cold, wet, or windy it might be!

Date:

Astronomy

Aug. 07, 2013 Rise Set
Actual Time 6:35 AM EDT 8:52 PM EDT
Civil Twilight 6:03 AM EDT 9:24 PM EDT
Nautical Twilight 5:24 AM EDT 10:03 PM EDT
Astronomical Twilight 4:40 AM EDT 10:46 PM EDT
Moon 7:26 AM EDT (8/7) 8:55 PM EDT (8/7)
Length of Visible Light 15h 20m
Length of Day
14h 17m
New Moon, 1% of the Moon is Illuminated
Aug 7
New Moon
Aug 14
First Quarter
Aug 20
Full
Aug 28
Last Quarter
Sep 5
New

Hourly Weather History & Observations

Time (EDT) Temp. Heat Index Dew Point Humidity Pressure Visibility Wind Dir Wind Speed Gust Speed Precip Events Conditions
12:13 AM 67.1 °F - 65.3 °F 94% 29.88 in 4.0 mi South 4.6 mph - N/A   Clear
12:33 AM 68.0 °F - 66.2 °F 94% 29.87 in 4.0 mi South 4.6 mph - N/A   Clear
12:53 AM 67.6 °F - 65.8 °F 94% 29.87 in 5.0 mi South 5.8 mph - N/A   Clear
1:13 AM 68.4 °F - 66.6 °F 94% 29.87 in 5.0 mi South 5.8 mph - N/A   Clear
1:33 AM 68.2 °F - 66.2 °F 93% 29.87 in 5.0 mi South 5.8 mph - N/A   Clear
1:53 AM 68.0 °F - 66.2 °F 94% 29.87 in 5.0 mi South 4.6 mph - N/A   Clear
2:13 AM 67.5 °F - 65.8 °F 95% 29.86 in 5.0 mi South 5.8 mph - N/A   Clear
2:33 AM 68.0 °F - 66.2 °F 94% 29.86 in 5.0 mi South 5.8 mph - N/A   Clear
2:53 AM 67.5 °F - 66.0 °F 95% 29.86 in 5.0 mi South 5.8 mph - N/A   Clear
3:13 AM 67.5 °F - 66.2 °F 96% 29.84 in 4.0 mi South 6.9 mph - N/A   Scattered Clouds
3:33 AM 67.8 °F - 66.4 °F 95% 29.84 in 5.0 mi South 5.8 mph - N/A   Scattered Clouds
3:53 AM 68.4 °F - 66.7 °F 95% 29.83 in 5.0 mi South 5.8 mph - N/A Rain Light Rain
4:13 AM 68.5 °F - 66.9 °F 95% 29.82 in 5.0 mi South 5.8 mph - N/A   Overcast
4:33 AM 68.9 °F - 67.1 °F 94% 29.82 in 4.0 mi SSW 5.8 mph - N/A Rain Light Rain
4:53 AM 69.3 °F - 67.6 °F 95% 29.81 in 5.0 mi SW 8.1 mph - N/A Rain Light Rain
5:13 AM 69.4 °F - 67.6 °F 94% 29.83 in 5.0 mi WSW 5.8 mph - N/A Rain Rain
5:33 AM 65.1 °F - 62.1 °F 90% 29.88 in 3.0 mi WNW 17.3 mph 36.8 mph N/A Rain Heavy Rain
5:54 AM 63.1 °F - 61.2 °F 93% 29.86 in 5.0 mi WNW 4.6 mph - N/A Rain Rain
6:13 AM 63.3 °F - 61.0 °F 92% 29.85 in 10.0 mi Calm Calm - N/A Rain Light Rain
6:33 AM 63.1 °F - 61.3 °F 94% 29.85 in 10.0 mi South 4.6 mph - N/A   Overcast
6:53 AM 63.0 °F - 61.2 °F 94% 29.84 in 10.0 mi South 5.8 mph - N/A Rain Light Rain
7:13 AM 63.0 °F - 61.3 °F 94% 29.85 in 10.0 mi South 10.4 mph 17.3 mph N/A Rain Light Rain
7:34 AM 63.0 °F - 61.0 °F 93% 29.84 in 10.0 mi SSW 5.8 mph - N/A Rain Light Rain
7:53 AM 63.5 °F - 61.2 °F 92% 29.84 in 10.0 mi South 11.5 mph - N/A Rain Rain
8:13 AM 63.9 °F - 61.7 °F 93% 29.82 in 10.0 mi South 12.7 mph - N/A Rain Light Rain
8:33 AM 63.9 °F - 61.7 °F 93% 29.78 in 10.0 mi South 13.8 mph 19.6 mph N/A Rain Light Rain
8:53 AM 65.1 °F - 61.7 °F 89% 29.81 in 10.0 mi SSW 8.1 mph - N/A Rain Light Rain
9:13 AM 65.7 °F - 62.6 °F 90% 29.82 in 10.0 mi SSW 9.2 mph - N/A   Clear
9:33 AM 66.4 °F - 63.3 °F 90% 29.82 in 10.0 mi SSW 8.1 mph - N/A   Mostly Cloudy
9:53 AM 67.3 °F - 63.7 °F 88% 29.82 in 10.0 mi SSW 10.4 mph - N/A   Overcast
10:14 AM 67.6 °F - 63.7 °F 87% 29.83 in 7.0 mi SSW 5.8 mph - N/A Rain Rain
10:33 AM 69.4 °F - 65.1 °F 86% 29.84 in 10.0 mi SW 6.9 mph - N/A   Overcast
10:53 AM 71.8 °F - 65.7 °F 81% 29.84 in 10.0 mi SSW 6.9 mph - N/A   Scattered Clouds
11:14 AM 73.8 °F - 66.0 °F 77% 29.84 in 10.0 mi SSW 6.9 mph - N/A   Mostly Cloudy
11:33 AM 75.0 °F - 65.7 °F 73% 29.85 in 10.0 mi WSW 10.4 mph - N/A   Scattered Clouds
11:53 AM 75.6 °F - 66.6 °F 74% 29.85 in 10.0 mi SSW 9.2 mph - N/A   Scattered Clouds
12:13 PM 77.4 °F - 66.0 °F 68% 29.85 in 10.0 mi SSW 10.4 mph 16.1 mph N/A   Clear
12:33 PM 77.4 °F - 66.0 °F 68% 29.85 in 10.0 mi SSW 10.4 mph - N/A   Mostly Cloudy
12:54 PM 79.0 °F - 66.9 °F 66% 29.84 in 10.0 mi South 10.4 mph - N/A   Scattered Clouds
1:13 PM 79.2 °F - 67.3 °F 67% 29.84 in 10.0 mi SW 11.5 mph 17.3 mph N/A   Scattered Clouds
1:34 PM 79.9 °F - 67.1 °F 65% 29.84 in 10.0 mi SW 12.7 mph 18.4 mph N/A   Mostly Cloudy
1:53 PM 81.1 °F 83.7 °F 67.6 °F 63% 29.83 in 10.0 mi West 9.2 mph - N/A   Scattered Clouds
2:13 PM 80.4 °F 82.7 °F 66.9 °F 63% 29.83 in 10.0 mi WSW 8.1 mph - N/A   Mostly Cloudy
2:33 PM 81.5 °F 84.4 °F 68.2 °F 64% 29.83 in 10.0 mi West 9.2 mph - N/A   Overcast
2:53 PM 81.5 °F 83.9 °F 67.1 °F 61% 29.84 in 10.0 mi WSW 10.4 mph - N/A   Overcast
3:13 PM 80.8 °F 83.5 °F 68.0 °F 65% 29.84 in 10.0 mi WSW 8.1 mph - N/A   Overcast
3:33 PM 80.6 °F 83.4 °F 68.4 °F 66% 29.84 in 10.0 mi West 6.9 mph - N/A   Overcast
3:53 PM 81.7 °F 84.7 °F 68.5 °F 64% 29.83 in 10.0 mi WSW 6.9 mph - N/A   Overcast
4:14 PM 82.4 °F 85.8 °F 68.9 °F 64% 29.83 in 10.0 mi WSW 5.8 mph - N/A   Mostly Cloudy
4:33 PM 83.3 °F 86.6 °F 68.4 °F 61% 29.83 in 10.0 mi SW 8.1 mph - N/A   Scattered Clouds
4:53 PM 82.8 °F 86.2 °F 68.9 °F 63% 29.83 in 10.0 mi SW 8.1 mph - N/A   Scattered Clouds
5:14 PM 82.2 °F 85.8 °F 69.4 °F 65% 29.84 in 10.0 mi SW 5.8 mph - N/A   Scattered Clouds
5:33 PM 81.7 °F 84.9 °F 68.7 °F 65% 29.84 in 10.0 mi West 6.9 mph - N/A   Mostly Cloudy
5:53 PM 80.6 °F 83.6 °F 69.1 °F 68% 29.84 in 10.0 mi SW 5.8 mph - N/A   Overcast
6:13 PM 81.3 °F 84.6 °F 69.6 °F 67% 29.84 in 10.0 mi West 5.8 mph - N/A   Overcast
6:34 PM 82.4 °F 84.6 °F 66.2 °F 58% 29.84 in 10.0 mi West 8.1 mph - N/A   Scattered Clouds
6:53 PM 81.9 °F 83.9 °F 65.8 °F 58% 29.84 in 10.0 mi West 11.5 mph - N/A   Scattered Clouds
7:13 PM 80.8 °F 82.6 °F 65.3 °F 59% 29.84 in 10.0 mi West 10.4 mph - N/A   Clear
7:34 PM 80.2 °F 82.2 °F 65.7 °F 61% 29.85 in 10.0 mi West 5.8 mph - N/A   Clear
7:53 PM 79.2 °F - 65.5 °F 63% 29.86 in 10.0 mi WNW 4.6 mph - N/A   Clear
8:14 PM 77.9 °F - 65.3 °F 65% 29.86 in 10.0 mi WNW 8.1 mph - N/A   Clear
8:33 PM 76.1 °F - 64.4 °F 67% 29.87 in 10.0 mi NW 8.1 mph - N/A   Clear
8:53 PM 73.9 °F - 64.0 °F 71% 29.87 in 10.0 mi NW 4.6 mph - N/A   Clear
9:13 PM 72.9 °F - 63.5 °F 72% 29.89 in 10.0 mi NW 5.8 mph - N/A   Clear
9:34 PM 71.2 °F - 63.5 °F 76% 29.89 in 10.0 mi NW 6.9 mph - N/A   Clear
9:53 PM 70.3 °F - 63.0 °F 77% 29.90 in 10.0 mi NW 5.8 mph - N/A   Clear
10:13 PM 68.5 °F - 62.6 °F 81% 29.91 in 10.0 mi NW 5.8 mph - N/A   Clear
10:34 PM 67.1 °F - 62.1 °F 84% 29.92 in 10.0 mi WNW 4.6 mph - N/A   Clear
10:53 PM 66.6 °F - 61.7 °F 84% 29.94 in 10.0 mi Calm Calm - N/A   Clear
11:14 PM 64.8 °F - 61.5 °F 89% 29.94 in 10.0 mi Calm Calm - N/A   Clear
11:33 PM 65.5 °F - 61.5 °F 87% 29.95 in 10.0 mi NNW 5.8 mph - N/A   Clear
11:54 PM 65.5 °F - 61.0 °F 85% 29.96 in 10.0 mi NNW 5.8 mph - N/A   Clear